Regional Weather Roundup
Issued by NWS Little Rock, AR

Home | Current Version | Previous Version | Text Only | Print | Product List | Glossary Off
Versions: 1 2 3 4 5 6 7 8 9 10 11 12 13 14 15 16 17 18 19 20 21 22 23 24 25 26 27 28 29 30 31 32 33 34 35 36 37 38 39 40 41 42 43 44 45 46 47 48 49 50

666
ASUS44 KLZK 172005
RWRLZK

WEATHER ROUNDUP FOR ARKANSAS
NATIONAL WEATHER SERVICE LITTLE ROCK AR
200 PM CST WED JAN 17 2018

NOTE: "FAIR" INDICATES FEW OR NO CLOUDS BELOW 12,000 FEET WITH NO
SIGNIFICANT WEATHER AND/OR OBSTRUCTIONS TO VISIBILITY.

ARZ001-003-010-029-172100-
NORTHWEST ARKANSAS

CITY           SKY/WX    TMP DP  RH WIND       PRES   REMARKS
FAYETTEVILLE   SUNNY     29   7  39 SW6       30.60F WCI  23
FORT SMITH     SUNNY     28   8  43 SW8       30.69F WCI  20
HARRISON       SUNNY     26  12  55 W3        30.59F
BENTONVILLE    SUNNY     28  11  48 S6        30.61F WCI  22
ROGERS         SUNNY     29  12  49 S3        30.60F
SILOAM SPGS    SUNNY     27   9  46 VRB3      30.61F
HIGHFILL       SUNNY     27   8  44 VRB5      30.60F WCI  22
SPRINGDALE     SUNNY     27   7  43 SW6       30.62F WCI  20
$$

ARZ004-005-016-172100-
NORTH CENTRAL ARKANSAS

CITY           SKY/WX    TMP DP  RH WIND       PRES   REMARKS
BATESVILLE     SUNNY     26   9  48 CALM      30.68F
FLIPPIN        SUNNY     31  12  45 CALM      30.66F
MTN HOME       SUNNY     21  10  62 NW6       30.63F WCI  13
$$

ARZ040-041-172100-
WEST CENTRAL ARKANSAS

CITY           SKY/WX    TMP DP  RH WIND       PRES   REMARKS
MENA           SUNNY     34   9  35 W3        30.62F
MOUNT IDA      SUNNY     30   7  37 VRB3      30.63F
$$

ARZ009-017-025-026-028-172100-
NORTHEAST ARKANSAS

CITY           SKY/WX    TMP DP  RH WIND       PRES   REMARKS
JONESBORO      FAIR      25  13  60 NW7       30.70F WCI  17
NEWPORT        FAIR      24  11  57 CALM      30.71F
WALNUT RIDGE   FAIR      26   9  48 CALM      30.69F
BLYTHEVILLE    FAIR      19  10  68 N3        30.71F
$$

ARZ022-023-033-042-044-172100-
CENTRAL ARKANSAS

CITY           SKY/WX    TMP DP  RH WIND       PRES   REMARKS
LITTLE ROCK    SUNNY     24  11  57 VRB3      30.72F
JACKSONVILLE   SUNNY     27  10  47 E5        30.69F WCI  22
SEARCY         FAIR      33  11  39 NE5       30.71F WCI  29
HOT SPRINGS    SUNNY     29  10  45 S7        30.68F WCI  22
RUSSELLVILLE   SUNNY     28   5  37 W5        30.68F WCI  23
CLINTON        FAIR      30   7  37 CALM      30.66F
$$

ARZ036-172100-
EAST ARKANSAS

CITY           SKY/WX    TMP DP  RH WIND       PRES   REMARKS
WEST MEMPHIS   FAIR      17  10  74 N5        30.71F WCI  10
$$

ARZ050-053-066-070-073-172100-
SOUTHWEST ARKANSAS

CITY           SKY/WX    TMP DP  RH WIND       PRES   REMARKS
ARKADELPHIA    FAIR      29  14  53 S5        30.73F WCI  24
CAMDEN         FAIR      30   9  40 CALM      30.73F
TEXARKANA      SUNNY     24   9  52 CALM      30.71F
EL DORADO      FAIR      27  13  55 CALM      30.71F
DE QUEEN       SUNNY     30   7  37 CALM      30.69F
$$

ARZ056-057-069-172100-
SOUTHEAST ARKANSAS

CITY           SKY/WX    TMP DP  RH WIND       PRES   REMARKS
PINE BLUFF     FAIR      19   9  65 NE5       30.74F WCI  12
STUTTGART      FAIR      21  10  62 CALM      30.74F
MONTICELLO     FAIR      27   9  46 VRB3      30.70F

$$






USA.gov is the U.S. government's official web portal to all federal, state and local government web resources and services.